| time (UTC) | temp C | wind direction | speed KPH | gust KPH | rain 1hr cm | rain 24hr cm | rain mn cm | humidity % | barometer mb |
| 20260503223717 | 28 | 0 | 8.0 | 12.9 | 0.00 | 0.00 | 0.00 | 34 | 1009.6 |
| 20260503222717 | 28 | 0 | 8.0 | 14.5 | 0.00 | 0.00 | 0.00 | 34 | 1009.8 |
| 20260503221717 | 28 | 23 | 6.4 | 9.7 | 0.00 | 0.00 | 0.00 | 36 | 1009.9 |
| 20260503220737 | 28 | 45 | 8.0 | 11.3 | 0.00 | 0.00 | 0.00 | 37 | 1010.0 |
| 20260503215737 | 28 | 45 | 9.7 | 14.5 | 0.00 | 0.00 | 0.00 | 38 | 1010.0 |
| 20260503214717 | 27 | 23 | 6.4 | 12.9 | 0.00 | 0.00 | 0.00 | 39 | 1010.2 |
| 20260503213757 | 27 | 0 | 6.4 | 14.5 | 0.00 | 0.00 | 0.00 | 38 | 1010.3 |
| 20260503212737 | 27 | 23 | 6.4 | 11.3 | 0.00 | 0.00 | 0.00 | 39 | 1010.3 |
| 20260503211717 | 27 | 45 | 8.0 | 11.3 | 0.00 | 0.00 | 0.00 | 39 | 1010.5 |
| 20260503210717 | 27 | 45 | 6.4 | 12.9 | 0.00 | 0.00 | 0.00 | 40 | 1010.6 |
| 20260503205717 | 27 | 23 | 4.8 | 14.5 | 0.00 | 0.00 | 0.00 | 40 | 1010.7 |
| 20260503204717 | 27 | 45 | 9.7 | 17.7 | 0.00 | 0.00 | 0.00 | 41 | 1010.7 |
| 20260503203717 | 26 | 23 | 6.4 | 9.7 | 0.00 | 0.00 | 0.00 | 41 | 1010.8 |
| 20260503202757 | 27 | 0 | 8.0 | 12.9 | 0.00 | 0.00 | 0.00 | 40 | 1011.0 |
| 20260503201717 | 27 | 0 | 8.0 | 14.5 | 0.00 | 0.00 | 0.00 | 42 | 1011.1 |
| 20260503200737 | 27 | 23 | 8.0 | 11.3 | 0.00 | 0.00 | 0.00 | 42 | 1011.2 |
| 20260503195717 | 27 | 23 | 6.4 | 11.3 | 0.00 | 0.00 | 0.00 | 44 | 1011.4 |
| 20260503194717 | 26 | 68 | 4.8 | 11.3 | 0.00 | 0.00 | 0.00 | 44 | 1011.6 |
| 20260503193717 | 26 | 45 | 6.4 | 11.3 | 0.00 | 0.00 | 0.00 | 44 | 1011.7 |
| 20260503192717 | 26 | 23 | 6.4 | 9.7 | 0.00 | 0.00 | 0.00 | 45 | 1011.7 |
| 20260503191717 | 26 | 0 | 8.0 | 11.3 | 0.00 | 0.00 | 0.00 | 45 | 1012.0 |
| 20260503190737 | 25 | 0 | 6.4 | 12.9 | 0.00 | 0.00 | 0.00 | 46 | 1012.0 |
| 20260503185717 | 25 | 23 | 9.7 | 16.1 | 0.00 | 0.00 | 0.00 | 46 | 1012.1 |
| 20260503184717 | 25 | 45 | 9.7 | 16.1 | 0.00 | 0.00 | 0.00 | 46 | 1012.2 |
| 20260503183717 | 25 | 0 | 9.7 | 14.5 | 0.00 | 0.00 | 0.00 | 46 | 1012.3 |
| 20260503182717 | 25 | 23 | 9.7 | 16.1 | 0.00 | 0.00 | 0.00 | 46 | 1012.5 |
| 20260503181717 | 24 | 45 | 6.4 | 11.3 | 0.00 | 0.00 | 0.00 | 47 | 1012.4 |
| 20260503180717 | 24 | 45 | 8.0 | 16.1 | 0.00 | 0.00 | 0.00 | 48 | 1012.5 |
| 20260503175717 | 23 | 0 | 9.7 | 14.5 | 0.00 | 0.00 | 0.00 | 49 | 1012.6 |
| 20260503174717 | 23 | 0 | 6.4 | 11.3 | 0.00 | 0.00 | 0.00 | 51 | 1012.5 |
| 20260503173717 | 22 | 23 | 4.8 | 9.7 | 0.00 | 0.00 | 0.00 | 53 | 1012.5 |
| 20260503172717 | 22 | 45 | 6.4 | 12.9 | 0.00 | 0.00 | 0.00 | 52 | 1012.7 |
| 20260503171737 | 22 | 45 | 9.7 | 16.1 | 0.00 | 0.00 | 0.00 | 53 | 1012.7 |
| 20260503170737 | 22 | 23 | 9.7 | 16.1 | 0.00 | 0.00 | 0.00 | 53 | 1012.7 |
| 20260503150737 | 16 | 68 | 3.2 | 6.4 | 0.00 | 0.00 | 0.00 | 79 | 1013.2 |
| 20260503130717 | 11 | 45 | 4.8 | 4.8 | 0.00 | 0.00 | 0.00 | 90 | 1012.7 |
| 20260503110717 | 11 | 23 | 3.2 | 3.2 | 0.00 | 0.00 | 0.00 | 87 | 1013.1 |
| 20260503080716 | 15 | 0.0 | 1.6 | 0.00 | 0.00 | 0.00 | 74 | 1013.3 | |
| 20260503072737 | 15 | 0.0 | 0.0 | 0.00 | 0.00 | 0.00 | 73 | 1013.3 | |
| 20260503071737 | 16 | 0.0 | 0.0 | 0.00 | 0.00 | 0.00 | 71 | 1013.3 | |
| 20260503070717 | 16 | 0.0 | 1.6 | 0.00 | 0.00 | 0.00 | 69 | 1013.3 | |
| 20260503054715 | 17 | 45 | 1.6 | 6.4 | 0.00 | 0.00 | 0.00 | 64 | 1013.1 |
| 20260503052715 | 17 | 68 | 1.6 | 3.2 | 0.00 | 0.00 | 0.00 | 65 | 1013.2 |
| 20260503051736 | 17 | 68 | 1.6 | 4.8 | 0.00 | 0.00 | 0.00 | 66 | 1013.0 |
| 20260503050715 | 17 | 68 | 3.2 | 4.8 | 0.00 | 0.00 | 0.00 | 66 | 1012.9 |
| 20260503045715 | 17 | 90 | 3.2 | 4.8 | 0.00 | 0.00 | 0.00 | 65 | 1012.9 |
| 20260503044715 | 17 | 68 | 3.2 | 6.4 | 0.00 | 0.00 | 0.00 | 64 | 1012.7 |
| 20260503043715 | 18 | 68 | 3.2 | 9.7 | 0.00 | 0.00 | 0.00 | 62 | 1012.6 |
| 20260503042715 | 18 | 90 | 3.2 | 6.4 | 0.00 | 0.00 | 0.00 | 60 | 1012.5 |
| 20260503041735 | 19 | 68 | 8.0 | 12.9 | 0.00 | 0.00 | 0.00 | 58 | 1012.5 |
| 20260503040736 | 20 | 68 | 1.6 | 4.8 | 0.00 | 0.00 | 0.00 | 54 | 1012.3 |
| 20260503035716 | 20 | 45 | 3.2 | 4.8 | 0.00 | 0.00 | 0.00 | 52 | 1012.1 |
| 20260503034716 | 21 | 45 | 4.8 | 6.4 | 0.00 | 0.00 | 0.00 | 51 | 1012.0 |
| 20260503033715 | 21 | 45 | 6.4 | 9.7 | 0.00 | 0.00 | 0.00 | 50 | 1011.9 |
| 20260503032716 | 21 | 23 | 6.4 | 9.7 | 0.00 | 0.00 | 0.00 | 49 | 1011.8 |
| 20260503031716 | 22 | 23 | 6.4 | 11.3 | 0.00 | 0.00 | 0.00 | 48 | 1011.8 |
| 20260503030735 | 22 | 23 | 6.4 | 9.7 | 0.00 | 0.00 | 0.00 | 46 | 1011.6 |
| 20260503025715 | 22 | 45 | 6.4 | 8.0 | 0.00 | 0.00 | 0.00 | 45 | 1011.5 |
| 20260503024715 | 23 | 45 | 4.8 | 9.7 | 0.00 | 0.00 | 0.00 | 44 | 1011.5 |
| 20260503023735 | 23 | 45 | 9.7 | 12.9 | 0.00 | 0.00 | 0.00 | 44 | 1011.5 |
| 20260503022715 | 23 | 45 | 8.0 | 16.1 | 0.00 | 0.00 | 0.00 | 45 | 1011.4 |
| 20260503021715 | 23 | 45 | 9.7 | 14.5 | 0.00 | 0.00 | 0.00 | 44 | 1011.4 |
| 20260503020715 | 23 | 45 | 6.4 | 11.3 | 0.00 | 0.00 | 0.00 | 43 | 1011.3 |
| 20260503015716 | 23 | 45 | 9.7 | 12.9 | 0.00 | 0.00 | 0.00 | 42 | 1011.4 |
| 20260503014715 | 24 | 45 | 4.8 | 11.3 | 0.00 | 0.00 | 0.00 | 43 | 1011.5 |
| 20260503013718 | 24 | 45 | 6.4 | 11.3 | 0.00 | 0.00 | 0.00 | 42 | 1011.4 |
| 20260503012715 | 24 | 45 | 8.0 | 11.3 | 0.00 | 0.00 | 0.00 | 42 | 1011.5 |
| 20260503011715 | 24 | 23 | 6.4 | 9.7 | 0.00 | 0.00 | 0.00 | 42 | 1011.6 |
| 20260503010715 | 24 | 45 | 9.7 | 12.9 | 0.00 | 0.00 | 0.00 | 41 | 1011.5 |
| 20260503005716 | 24 | 23 | 8.0 | 19.3 | 0.00 | 0.00 | 0.00 | 42 | 1011.6 |
| 20260503004715 | 25 | 45 | 8.0 | 11.3 | 0.00 | 0.00 | 0.00 | 42 | 1011.7 |
| 20260503003735 | 24 | 23 | 6.4 | 11.3 | 0.00 | 0.00 | 0.00 | 43 | 1011.7 |
| 20260503002735 | 25 | 23 | 8.0 | 16.1 | 0.00 | 0.00 | 0.00 | 45 | 1011.7 |
| 20260503001715 | 24 | 23 | 8.0 | 12.9 | 0.00 | 0.00 | 0.00 | 45 | 1011.7 |
| 20260503000715 | 24 | 45 | 6.4 | 11.3 | 0.00 | 0.00 | 0.00 | 45 | 1011.7 |
| 20260502235715 | 24 | 23 | 6.4 | 14.5 | 0.00 | 0.00 | 0.00 | 45 | 1011.8 |
| 20260502234735 | 23 | 23 | 8.0 | 14.5 | 0.00 | 0.00 | 0.00 | 46 | 1012.0 |
| 20260502233715 | 24 | 45 | 12.9 | 16.1 | 0.00 | 0.00 | 0.00 | 45 | 1012.2 |
| 20260502232756 | 24 | 23 | 6.4 | 11.3 | 0.00 | 0.00 | 0.00 | 46 | 1012.3 |
| 20260502231715 | 25 | 0 | 8.0 | 14.5 | 0.00 | 0.00 | 0.00 | 47 | 1012.4 |
| 20260502230755 | 24 | 45 | 9.7 | 16.1 | 0.00 | 0.00 | 0.00 | 48 | 1012.5 |
| 20260502225755 | 25 | 23 | 8.0 | 14.5 | 0.00 | 0.00 | 0.00 | 47 | 1012.7 |
| 20260502224715 | 24 | 23 | 6.4 | 11.3 | 0.00 | 0.00 | 0.00 | 49 | 1012.8 |